Погода в Кэлэраши

Румыния     44°12′30″N   27°19′05″E
темп.,
°C
ветер,
м/с
пор.,
м/с
влажн.,
%
обл.,
%
осадки,
мм/ч
давл.,
гПа
погр.,
м
8 марта, пн
пн823:00+3юз34660 0.0 102173
02:00+2юз34700 0.0 101979
05:00+1юз34700 0.0 101792
08:00+2зюз37670 0.0 1016225
11:00+8з464958 0.0 1016698
14:00+10з453853 0.0 10151249
17:00+10з353822 0.0 10131451
20:00+7зсз115211 0.0 101422
9 марта, вт
вт923:00+5ссз12550 0.0 101623
02:00+3ссв614720 0.0 1017461
05:00+1св612760 0.0 1019556
08:00+2св510680 0.0 1021597
11:00+6всв45510 0.0 1021890
14:00+8всв33416 0.0 10211252
17:00+8в334222 0.0 10201449
20:00+4юв596561 0.0 1021379
10 марта, ср
ср1023:00+3юв4873100 0.0 1022404
02:00+3вюв3878100 0.0 1021400
05:00+3вюв5976100 0.0 1020491
08:00+2вюв6991100 0.6 1020522
11:00+3в5893100 1.1 1019519
14:00+3в5793100 1.8 1019492
17:00+3в4691100 0.3 1018486
20:00+3ю2388100 0.3 1020287
11 марта, чт
чт1123:00+2сз2293100 0.0 102179
02:00+2ссз0190100 0.0 1022185
05:00+1юз129388 0.0 102327
08:00+3зсз118987 0.0 1025171
11:00+6з236565 0.1 1025950
14:00+8юз225175 0.1 10241335
17:00+8ююз345399 0.1 10231277
20:00+6ююв367188 0.1 1024139
12 марта, пт
пт1223:00+4ю5108162 0.0 1023276
02:00+4ю5118051 0.0 1021302
05:00+3ю378194 0.0 1020179
08:00+5ю357496 0.0 1019173
11:00+9юз3554100 0.0 1018468
14:00+13зюз4739100 0.0 10161070
17:00+12з5846100 0.0 10151080
20:00+9зюз4963100 0.0 1016226